{"data":{"norad_id":52131,"epoch":"2026-09-19T13:23:00.445920Z","epoch_age_seconds":137504,"freshness":"FRESH","line1":"1 52131U 22029AV  26262.55764405  .00020694  00000+0  89124-3 0  9998","line2":"2 52131  53.2259 264.1334 0004299  72.1544 287.9923 15.22579439250419","mean_motion":15.22579439,"eccentricity":0.0004299,"inclination_deg":53.2259,"raan_deg":264.1334,"arg_perigee_deg":72.1544,"mean_anomaly_deg":287.9923,"bstar":0.00089124,"rev_number":25041,"period_min":94.576346108139,"perigee_km":495.10746184615,"apogee_km":501.01961907084,"semimajor_km":6876.2005404585,"source":"CELESTRAK","updated_at":"2026-09-20T09:00:39.991357Z"}}